Temperature
15 15 15 15 15 15 15 15 15 15 15 16 16 16 16 16 16 16 16 16 16 15 15 15 15 15 15 15 15 15 15 15 15 15 15 15 15 15
15 15 15 15 15 15 15 15 15 15 14 15 15 15 15 15 15 15 15 15 15 15 15 15 15 15 15 15 15 15 15 15 15 15 15 15 15 15
15 15 15 15 15 15 15 15 14 14 14 14 15 15 15 15 15 15 15 15 15 15 15 15 15 15 15 15 15 15 15 15 15 15 15 14 14 14
14 14 14 14 14 14 14 14 14 14 14 14 14 14 14 14 14 14 15 15 14 14 14 14 14 15 15 14 14 14 14 14 14 14 14 14 14 14
14 14 14 14 14 14 14 14 14 14 14 14 14 14 14 14 14 14 14 14 14 14 14 14 14 14 14 14 14 14 14 14 14 14 14 14 14 14
14 14 14 14 14 14 14 14 14 13 13 13 13 13 14 14 14 14 14 14 14 14 14 14 14 14 14 14 14 14 14 14 14 14 14 14 14 14
14 13 13 13 13 13 13 13 13 13 13 13 13 13 13 13 13 13 13 13 13 13 13 13 13 14 14 14 14 14 14 14 14 14 14 14 14 14
13 13 13 13 13 13 13 13 13 13 13 13 13 13 13 13 13 13 13 13 13 13 13 13 13 13 14 14 14 14 14 14 14 14 14 13 13 13
13 13 13 13 13 13 13 13 13 13 13 13 13 13 12 13 12 13 13 12 13 13 13 13 13 13 13 13 14 14 14 14 14 14 13 13 13 13
13 13 13 13 13 12 13 13 13 12 12 12 12 12 12 12 12 12 12 12 12 13 12 13 13 13 13 13 13 13 13 13 13 13 13 13 13 13
13 12 12 12 12 12 12 12 12 12 12 12 12 12 12 12 12 12 12 12 12 12 12 12 13 13 13 13 13 13 13 13 13 13 13 13 13 12
12 12 12 12 12 12 12 12 12 12 12 12 12 12 12 12 12 12 12 12 12 12 12 12 12 12 12 13 13 13 13 13 13 13 12 12 12 12
12 12 12 12 12 12 12 12 12 12 12 12 12 12 12 12 12 12 12 12 12 12 12 12 12 12 12 12 12 12 12 12 12 12 12 12 12 12
12 12 11 11 11 12 12 11 11 11 11 11 11 12 12 12 12 12 12 12 12 12 12 11 11 12 11 11 11 12 12 12 12 12 12 12 12 12
11 11 11 11 11 11 11 11 11 11 11 11 11 11 11 11 11 11 11 11 11 11 11 11 11 11 11 11 11 11 11 11 11 11 11 11 11 11
11 11 11 11 11 11 11 11 11 11 11 11 11 11 11 11 11 11 11 11 11 11 11 11 11 11 11 11 11 11 11 11 11 11 11 11 11 11
11 11 11 11 11 11 11 11 11 10 10 10 10 10 10 11 11 11 10 11 11 11 11 11 11 11 11 11 11 11 11 11 11 11 11 11 11 11
11 11 11 10 10 10 10 10 10 10 10 10 10 10 10 10 10 10 10 10 10 10 10 10 10 10 10 10 10 10 10 10 10 10 10 10 10 10
11 10 10 10 10 10 10 10 10 10 10 10 10 10 10 10 10 9 9 10 9 10 10 9 9 9 9 10 10 10 10 10 10 10 10 10 10 10
10 10 10 10 10 9 9 9 9 9 9 9 9 9 9 9 9 9 9 9 9 9 9 9 9 9 9 9 9 9 9 10 10 9 10 10 10 10
10 10 10 9 9 9 9 9 9 9 9 9 9 9 9 9 9 9 9 8 8 9 9 9 9 9 9 9 9 9 9 9 9 9 9 9 9 9
10 10 9 9 9 9 9 9 9 9 8 8 8 8 8 8 8 8 8 8 8 8 8 8 8 8 8 8 8 9 9 9 9 9 9 9 9 9
10 9 9 9 9 9 9 8 8 8 8 8 8 8 8 8 8 8 8 7 7 8 8 8 8 8 8 8 8 8 8 9 9 9 9 9 9 9
Wind_Speed
1 1 1 1 1 0 1 2 2 2 3 3 2 2 2 3 5 6 6 8 10 11 12 12 12 13 13 13 13 13 13 13 14 14 14 14 13 13
0 1 1 2 1 1 1 1 2 3 3 3 3 3 2 3 5 5 7 8 9 10 11 12 13 13 13 13 14 14 14 14 13 13 13 13 13 13
1 1 2 1 1 2 1 1 1 2 3 3 2 2 2 2 3 4 5 5 6 9 10 11 11 12 13 14 14 14 15 14 13 13 13 13 13 13
1 1 2 2 1 2 1 1 2 2 2 3 3 2 2 3 3 3 3 4 5 7 8 9 10 11 13 14 14 14 14 14 14 14 13 13 13 13
2 2 3 2 2 2 2 2 2 2 1 2 3 3 2 2 2 3 3 2 4 6 7 9 10 10 11 13 13 13 14 14 14 14 14 14 14 13
2 2 3 3 3 3 2 2 2 1 1 2 2 3 3 2 1 2 3 3 4 4 5 6 8 9 10 11 13 14 14 14 15 15 15 15 14 13
2 2 3 3 3 3 2 3 2 2 1 2 2 2 3 2 2 2 3 4 4 3 3 4 3 4 6 9 11 13 15 15 16 16 15 14 14 14
3 3 3 3 4 4 3 2 2 3 3 2 2 3 4 4 3 3 2 2 4 3 2 4 3 4 5 6 9 12 13 14 14 15 15 15 14 14
2 2 3 3 3 2 3 3 3 3 4 4 4 5 5 4 3 3 3 3 5 4 1 4 3 4 5 7 9 9 10 11 12 13 13 14 14 13
2 2 2 3 3 2 2 2 3 4 4 4 4 6 5 4 4 4 5 4 4 3 2 3 3 4 5 4 7 8 9 9 11 12 12 13 13 13
3 2 2 3 4 3 1 2 4 5 5 5 5 6 7 6 4 1 2 1 4 4 2 3 3 3 3 4 4 5 6 7 8 9 10 11 12 11
3 3 4 4 5 3 1 2 4 6 5 6 5 6 5 5 5 4 4 3 3 3 3 2 3 1 2 3 2 1 2 4 6 6 8 9 10 7
2 3 4 6 5 5 3 3 6 5 4 4 4 4 4 3 3 3 4 4 4 4 4 2 2 1 2 2 2 1 1 1 2 2 5 8 8 8
3 4 4 6 6 6 4 5 6 4 2 2 3 3 3 4 4 4 4 4 5 6 5 2 2 3 2 2 2 2 1 1 1 2 2 3 5 7
3 5 6 6 6 5 5 6 4 2 1 2 3 4 4 4 3 3 3 2 2 3 3 2 3 2 2 3 2 2 1 1 1 2 1 2 2 3
3 5 6 6 5 4 5 4 2 1 1 2 3 3 3 2 2 2 2 2 2 3 4 3 2 2 2 2 3 2 2 1 1 1 1 1 2 3
2 2 2 3 4 4 4 4 3 3 2 2 2 3 2 2 2 2 1 1 1 2 3 3 2 1 2 2 2 2 2 1 1 2 2 1 2 3
2 2 2 2 3 3 4 4 4 3 3 2 2 2 2 2 3 3 2 1 1 2 2 2 2 2 2 2 2 3 2 2 1 1 2 1 2 2
2 1 2 2 3 3 3 3 3 4 3 2 2 2 2 2 2 2 2 2 2 2 2 1 1 0 1 2 3 1 2 2 1 1 1 1 2 3
0 1 2 2 2 2 3 3 3 4 3 3 3 2 2 2 2 2 2 2 2 2 2 2 1 1 2 2 2 2 2 3 3 2 1 0 1 1
1 1 2 2 2 2 2 2 3 3 3 3 3 2 2 2 2 2 2 2 2 1 2 2 3 3 1 1 0 2 2 2 3 3 2 1 1 0
2 2 2 2 1 1 1 2 2 3 3 3 3 2 2 2 2 3 2 2 1 1 2 3 2 2 1 0 1 2 2 2 2 1 2 3 3 3
3 2 2 1 1 1 1 1 2 2 3 3 3 3 2 2 3 2 2 1 1 1 2 2 2 1 0 1 1 1 2 2 1 2 2 3 4 5
Wind_Direction
274 294 302 289 281 266 212 188 186 237 282 284 290 284 260 217 228 223 228 234 231 229 227 230 234 236 235 234 234 231 232 232 231 232 231 230 231 231
326 352 317 297 301 310 294 255 200 195 239 273 263 283 289 267 247 231 235 244 240 234 230 232 236 236 235 235 235 233 232 230 230 230 230 229 229 230
346 346 299 295 308 311 310 294 248 199 226 269 269 289 292 283 285 255 242 243 251 247 239 236 236 238 239 238 237 236 234 232 229 229 228 227 229 230
288 293 295 301 305 291 283 283 264 223 206 261 284 291 279 275 275 269 268 260 253 249 248 243 240 240 239 238 238 236 234 232 229 227 226 227 229 231
268 259 265 277 286 279 271 274 278 277 224 235 272 279 280 290 303 295 284 279 270 260 255 252 250 249 247 244 242 237 232 230 228 224 222 223 225 227
279 263 258 250 249 255 259 253 254 271 266 255 274 286 278 287 291 287 298 290 277 281 281 268 260 259 256 252 249 241 234 231 228 224 221 220 222 224
288 280 272 271 267 257 256 236 222 218 242 258 279 295 287 283 272 264 270 286 290 278 286 278 275 271 267 260 254 247 237 231 228 224 223 222 222 223
280 290 292 289 294 286 287 268 216 207 219 229 248 261 274 263 255 254 263 291 293 283 267 280 266 264 266 259 259 254 243 233 228 223 219 219 221 223
264 281 304 323 333 302 311 323 300 274 237 218 231 247 254 257 259 264 254 250 256 261 262 279 274 267 268 271 267 255 241 232 229 224 217 215 217 220
275 255 267 303 313 299 303 313 294 288 269 248 237 252 253 246 234 240 246 258 272 270 205 255 271 273 280 286 276 257 239 230 224 221 218 215 215 218
306 297 278 288 298 305 312 293 300 304 298 282 269 271 274 273 256 241 267 270 283 281 233 225 262 276 280 284 292 258 233 228 223 220 218 213 212 213
325 321 313 305 306 315 292 275 287 292 307 318 311 302 289 286 273 229 217 223 251 272 259 222 247 248 292 286 291 302 241 237 229 226 221 214 208 198
317 311 304 311 311 305 293 269 268 277 293 296 297 300 301 297 284 258 226 209 218 244 252 199 222 220 224 282 318 305 224 205 206 226 226 216 206 191
278 285 297 312 316 313 303 288 291 298 298 306 306 296 288 285 283 276 256 233 227 236 253 219 211 215 216 253 278 306 282 236 199 204 190 193 200 199
281 293 305 309 313 314 309 308 319 326 307 301 292 284 275 274 286 298 299 281 279 276 275 244 222 226 202 219 242 247 256 273 219 200 191 186 191 178
321 319 320 319 324 318 324 331 333 313 281 277 287 290 300 304 294 288 292 305 311 306 310 302 251 207 220 233 221 239 224 226 216 195 186 199 190 187
326 344 356 356 351 348 346 343 344 352 342 317 308 314 324 329 313 314 307 307 275 288 313 324 325 284 223 221 237 242 238 237 222 185 163 198 236 215
53 4 343 341 333 335 339 337 336 336 330 325 325 324 325 329 328 334 340 320 287 285 293 302 336 1 4 335 236 217 227 226 232 175 156 177 248 245
72 347 328 324 323 327 328 326 323 324 329 334 325 320 326 330 331 326 331 339 319 301 296 297 302 221 303 304 311 263 196 204 169 156 176 183 224 250
90 300 299 301 309 319 326 328 327 335 342 341 337 331 330 324 321 316 307 308 305 319 327 328 302 251 222 232 261 297 259 196 178 189 208 221 257 284
252 267 272 287 304 313 323 328 333 334 334 333 329 327 331 331 324 320 313 309 308 319 320 306 289 285 257 113 357 312 315 284 201 193 190 184 246 298
242 248 263 270 281 299 331 340 343 338 335 332 325 323 334 346 328 317 313 311 305 298 296 294 311 354 45 143 256 284 308 336 358 320 247 208 193 201
238 241 253 276 280 281 303 313 317 317 319 325 330 333 339 331 315 307 299 290 284 294 306 316 336 357 288 205 241 266 282 303 333 359 329 304 232 236
Height
1504 1504 1504 1504 1503 1503 1502 1502 1502 1501 1500 1500 1500 1500 1500 1499 1499 1499 1499 1498 1498 1497 1497 1497 1497 1497 1498 1498 1498 1499 1499 1500 1501 1502 1503 1504 1506 1507
1502 1502 1502 1501 1501 1500 1500 1500 1499 1499 1498 1497 1497 1497 1497 1497 1497 1496 1495 1495 1495 1494 1493 1493 1493 1493 1494 1494 1494 1494 1495 1496 1496 1498 1499 1500 1501 1502
1500 1500 1499 1499 1498 1498 1498 1497 1497 1496 1495 1495 1495 1494 1493 1493 1493 1492 1492 1491 1491 1490 1490 1490 1489 1489 1489 1489 1489 1490 1490 1491 1492 1493 1494 1495 1496 1497
1498 1497 1497 1497 1496 1495 1495 1494 1494 1493 1493 1492 1491 1491 1490 1490 1489 1489 1488 1487 1487 1487 1486 1486 1485 1485 1484 1485 1485 1485 1485 1486 1487 1488 1489 1490 1491 1492
1495 1495 1494 1494 1493 1492 1492 1491 1491 1490 1490 1489 1488 1487 1487 1486 1486 1485 1485 1484 1483 1483 1482 1482 1481 1480 1480 1479 1479 1479 1480 1480 1481 1482 1483 1485 1486 1487
1493 1492 1492 1491 1490 1489 1489 1488 1488 1487 1487 1486 1485 1484 1483 1483 1482 1482 1481 1480 1480 1479 1478 1478 1477 1476 1475 1474 1474 1474 1474 1474 1475 1476 1478 1480 1481 1483
1491 1490 1489 1488 1488 1487 1486 1485 1485 1484 1483 1482 1481 1481 1479 1479 1479 1478 1477 1476 1476 1475 1474 1474 1472 1471 1470 1470 1469 1468 1468 1468 1469 1470 1472 1474 1476 1478
1488 1488 1487 1486 1485 1484 1484 1483 1482 1481 1480 1479 1478 1477 1476 1476 1476 1475 1474 1473 1471 1472 1471 1469 1468 1467 1466 1465 1464 1463 1462 1462 1464 1465 1467 1469 1471 1473
1486 1485 1485 1484 1483 1482 1481 1480 1479 1478 1478 1476 1474 1473 1473 1473 1472 1471 1470 1470 1469 1468 1468 1465 1465 1463 1462 1461 1460 1458 1458 1458 1459 1460 1462 1465 1467 1469
1484 1483 1483 1482 1480 1479 1478 1476 1476 1475 1474 1472 1471 1470 1470 1469 1469 1469 1467 1467 1466 1465 1464 1462 1461 1460 1459 1458 1457 1456 1455 1455 1456 1457 1459 1461 1463 1465
1483 1482 1480 1479 1478 1477 1475 1473 1472 1471 1471 1469 1468 1467 1467 1466 1465 1465 1464 1463 1461 1460 1461 1459 1458 1457 1455 1455 1455 1454 1453 1453 1454 1454 1456 1457 1459 1461
1481 1480 1478 1477 1475 1474 1472 1471 1469 1468 1467 1466 1464 1464 1463 1462 1462 1461 1461 1460 1458 1457 1457 1456 1455 1454 1452 1452 1452 1452 1451 1451 1451 1452 1453 1455 1456 1457
1479 1477 1476 1475 1473 1471 1470 1468 1467 1466 1464 1463 1461 1460 1459 1459 1458 1458 1457 1457 1455 1454 1454 1453 1452 1451 1450 1449 1448 1449 1448 1448 1449 1449 1450 1451 1452 1453
1477 1476 1474 1473 1471 1469 1467 1466 1465 1463 1462 1460 1459 1457 1456 1456 1455 1455 1454 1453 1452 1451 1451 1451 1449 1449 1448 1447 1446 1445 1446 1446 1446 1447 1447 1448 1449 1450
1475 1474 1473 1471 1469 1467 1465 1464 1462 1460 1459 1458 1456 1455 1454 1454 1452 1452 1451 1450 1449 1448 1448 1447 1447 1446 1445 1444 1443 1443 1442 1442 1443 1444 1444 1445 1446 1447
1473 1472 1471 1469 1467 1465 1463 1461 1460 1458 1457 1456 1454 1453 1452 1451 1450 1449 1447 1446 1445 1445 1445 1444 1443 1443 1442 1441 1441 1440 1440 1440 1440 1441 1441 1442 1443 1444
1471 1470 1468 1466 1465 1463 1461 1460 1458 1457 1455 1454 1452 1451 1450 1448 1447 1446 1444 1443 1442 1441 1441 1441 1440 1440 1439 1439 1438 1437 1437 1437 1438 1438 1438 1439 1440 1441
1470 1468 1466 1464 1463 1461 1459 1458 1456 1455 1453 1452 1450 1449 1447 1446 1444 1443 1442 1441 1439 1439 1438 1438 1437 1437 1436 1436 1436 1435 1435 1435 1435 1435 1436 1436 1436 1438
1468 1466 1465 1463 1461 1459 1458 1456 1454 1453 1452 1450 1448 1447 1445 1444 1442 1441 1439 1438 1437 1437 1436 1436 1435 1434 1433 1432 1433 1433 1433 1432 1433 1433 1433 1434 1434 1435
1466 1464 1463 1462 1460 1458 1456 1454 1453 1451 1450 1448 1446 1444 1443 1442 1440 1439 1437 1436 1435 1435 1434 1434 1433 1432 1432 1431 1430 1431 1431 1431 1431 1431 1431 1432 1432 1433
1464 1463 1462 1460 1458 1457 1455 1453 1451 1449 1447 1446 1444 1442 1441 1439 1438 1436 1435 1434 1433 1432 1432 1431 1431 1431 1430 1430 1429 1428 1429 1430 1429 1429 1429 1429 1429 1429
1462 1461 1460 1459 1457 1455 1453 1451 1449 1447 1445 1443 1442 1440 1439 1437 1436 1434 1433 1432 1431 1431 1430 1429 1429 1429 1428 1428 1427 1426 1427 1427 1428 1428 1428 1428 1427 1427
1461 1460 1458 1457 1455 1453 1451 1449 1447 1445 1443 1441 1439 1438 1437 1435 1434 1432 1431 1430 1429 1429 1428 1427 1427 1426 1426 1426 1425 1425 1425 1425 1425 1425 1426 1426 1426 1426